owner,sensor,date,latitude,longitude,vertical_datum,wind_speed,wind_to_direction,wind_speed_of_gust,qcFlag 
DISL,ioos:station:DISL:MHPA:1,2017-01-01T06:30:00Z,30.6671,-87.9365,8.5,5.1,205.8,-999.0,'1111122,1111122,1111122' 
DISL,ioos:station:DISL:MHPA:1,2017-01-01T07:00:00Z,30.6671,-87.9365,8.5,3.87,174.7,-999.0,'1111122,1111122,1111122' 
DISL,ioos:station:DISL:MHPA:1,2017-01-01T07:30:00Z,30.6671,-87.9365,8.5,4.11,226.9,-999.0,'1111122,1111122,1111122' 
DISL,ioos:station:DISL:MHPA:1,2017-01-01T08:30:00Z,30.6671,-87.9365,8.5,1.87,142.2,-999.0,'1111122,1111122,1111122' 
DISL,ioos:station:DISL:MHPA:1,2017-01-01T09:00:00Z,30.6671,-87.9365,8.5,3.11,158.4,-999.0,'1111122,1111122,1111122' 
DISL,ioos:station:DISL:MHPA:1,2017-01-01T09:30:00Z,30.6671,-87.9365,8.5,3.98,180.4,-999.0,'1111122,1111122,1111122' 
DISL,ioos:station:DISL:MHPA:1,2017-01-01T10:00:00Z,30.6671,-87.9365,8.5,3.32,183.9,-999.0,'1111122,1111122,1111122' 
DISL,ioos:station:DISL:MHPA:1,2017-01-01T10:30:00Z,30.6671,-87.9365,8.5,1.33,128.5,-999.0,'1111122,1111122,1111122' 
DISL,ioos:station:DISL:MHPA:1,2017-01-01T11:00:00Z,30.6671,-87.9365,8.5,2.21,133.3,-999.0,'1111122,1111122,1111122' 
DISL,ioos:station:DISL:MHPA:1,2017-01-01T11:30:00Z,30.6671,-87.9365,8.5,3.07,144.8,-999.0,'1111122,1111122,1111122' 
DISL,ioos:station:DISL:MHPA:1,2017-01-01T12:00:00Z,30.6671,-87.9365,8.5,4.75,155.1,-999.0,'1111122,1111122,1111122' 
DISL,ioos:station:DISL:MHPA:1,2017-01-01T12:30:00Z,30.6671,-87.9365,8.5,5.77,150.7,-999.0,'1111122,1111122,1111122' 
DISL,ioos:station:DISL:MHPA:1,2017-01-01T13:00:00Z,30.6671,-87.9365,8.5,5.1,167.1,-999.0,'1111122,1111122,1111122' 
DISL,ioos:station:DISL:MHPA:1,2017-01-01T13:30:00Z,30.6671,-87.9365,8.5,2.59,159.3,-999.0,'1111122,1111122,1111122' 
DISL,ioos:station:DISL:MHPA:1,2017-01-01T14:00:00Z,30.6671,-87.9365,8.5,1.91,110.7,-999.0,'1111122,1111122,1111122' 
DISL,ioos:station:DISL:MHPA:1,2017-01-01T14:30:00Z,30.6671,-87.9365,8.5,2.49,99.7,-999.0,'1111122,1111122,1111122' 
DISL,ioos:station:DISL:MHPA:1,2017-01-01T15:00:00Z,30.6671,-87.9365,8.5,3.4,110.3,-999.0,'1111122,1111122,1111122' 
DISL,ioos:station:DISL:MHPA:1,2017-01-01T15:30:00Z,30.6671,-87.9365,8.5,1.91,322.7,-999.0,'1111122,1111122,1111122' 
DISL,ioos:station:DISL:MHPA:1,2017-01-01T16:00:00Z,30.6671,-87.9365,8.5,2.68,109.3,-999.0,'1111122,1111122,1111122' 
DISL,ioos:station:DISL:MHPA:1,2017-01-01T16:30:00Z,30.6671,-87.9365,8.5,7.67,149.8,-999.0,'1111122,1111122,1111122' 
DISL,ioos:station:DISL:MHPA:1,2017-01-01T17:00:00Z,30.6671,-87.9365,8.5,7.81,156.2,-999.0,'1111122,1111122,1111122' 
DISL,ioos:station:DISL:MHPA:1,2017-01-01T17:30:00Z,30.6671,-87.9365,8.5,7.9,161.8,-999.0,'1111122,1111122,1111122' 
DISL,ioos:station:DISL:MHPA:1,2017-01-01T18:00:00Z,30.6671,-87.9365,8.5,7.99,165.8,-999.0,'1111122,1111122,1111122' 
DISL,ioos:station:DISL:MHPA:1,2017-01-01T19:00:00Z,30.6671,-87.9365,8.5,6.01,167.7,-999.0,'1111122,1111122,1111122' 
DISL,ioos:station:DISL:MHPA:1,2017-01-01T19:30:00Z,30.6671,-87.9365,8.5,6.44,161.7,-999.0,'1111122,1111122,1111122' 
DISL,ioos:station:DISL:MHPA:1,2017-01-01T20:00:00Z,30.6671,-87.9365,8.5,7.15,163.5,-999.0,'1111122,1111122,1111122' 
DISL,ioos:station:DISL:MHPA:1,2017-01-01T20:30:00Z,30.6671,-87.9365,8.5,3.26,193.2,-999.0,'1111122,1111122,1111122' 
DISL,ioos:station:DISL:MHPA:1,2017-01-01T21:00:00Z,30.6671,-87.9365,8.5,4.73,181.7,-999.0,'1111122,1111122,1111122' 
DISL,ioos:station:DISL:MHPA:1,2017-01-01T22:00:00Z,30.6671,-87.9365,8.5,6.54,168.5,-999.0,'1111122,1111122,1111122' 
DISL,ioos:station:DISL:MHPA:1,2017-01-01T22:30:00Z,30.6671,-87.9365,8.5,5.07,166.0,-999.0,'1111122,1111122,1111122' 
DISL,ioos:station:DISL:MHPA:1,2017-01-01T23:00:00Z,30.6671,-87.9365,8.5,4.46,174.8,-999.0,'1111122,1111122,1111122' 
DISL,ioos:station:DISL:MHPA:1,2017-01-01T23:30:00Z,30.6671,-87.9365,8.5,4.11,171.5,-999.0,'1111122,1111122,1111122' 
DISL,ioos:station:DISL:MHPA:1,2017-01-02T00:00:00Z,30.6671,-87.9365,8.5,4.33,175.5,-999.0,'1111122,1111122,1111122' 
DISL,ioos:station:DISL:MHPA:1,2017-01-02T00:30:00Z,30.6671,-87.9365,8.5,4.64,160.0,-999.0,'1111122,1111122,1111122' 
DISL,ioos:station:DISL:MHPA:1,2017-01-02T01:00:00Z,30.6671,-87.9365,8.5,5.47,168.9,-999.0,'1111122,1111122,1111122' 
DISL,ioos:station:DISL:MHPA:1,2017-01-02T01:30:00Z,30.6671,-87.9365,8.5,5.08,168.2,-999.0,'1111122,1111122,1111122' 
DISL,ioos:station:DISL:MHPA:1,2017-01-02T02:00:00Z,30.6671,-87.9365,8.5,6.67,157.0,-999.0,'1111122,1111122,1111122' 
DISL,ioos:station:DISL:MHPA:1,2017-01-02T02:30:00Z,30.6671,-87.9365,8.5,5.01,257.2,-999.0,'1111122,1111122,1111122' 
DISL,ioos:station:DISL:MHPA:1,2017-01-02T03:00:00Z,30.6671,-87.9365,8.5,3.5,319.4,-999.0,'1111122,1111122,1111122' 
DISL,ioos:station:DISL:MHPA:1,2017-01-02T03:30:00Z,30.6671,-87.9365,8.5,1.42,13.13,-999.0,'1111122,1111122,1111122' 
DISL,ioos:station:DISL:MHPA:1,2017-01-02T04:00:00Z,30.6671,-87.9365,8.5,1.27,336.1,-999.0,'1111122,1111122,1111122' 
DISL,ioos:station:DISL:MHPA:1,2017-01-02T04:30:00Z,30.6671,-87.9365,8.5,1.11,8.55,-999.0,'1111122,1111122,1111122' 
DISL,ioos:station:DISL:MHPA:1,2017-01-02T05:00:00Z,30.6671,-87.9365,8.5,2.51,325.7,-999.0,'1111122,1111122,1111122' 
DISL,ioos:station:DISL:MHPA:1,2017-01-02T06:00:00Z,30.6671,-87.9365,8.5,1.39,77.78,-999.0,'1111122,1111122,1111122' 
DISL,ioos:station:DISL:MHPA:1,2017-01-02T06:30:00Z,30.6671,-87.9365,8.5,2.87,101.7,-999.0,'1111122,1111122,1111122' 
DISL,ioos:station:DISL:MHPA:1,2017-01-02T07:00:00Z,30.6671,-87.9365,8.5,3.64,103.1,-999.0,'1111122,1111122,1111122' 
DISL,ioos:station:DISL:MHPA:1,2017-01-02T07:30:00Z,30.6671,-87.9365,8.5,2.71,104.2,-999.0,'1111122,1111122,1111122' 
DISL,ioos:station:DISL:MHPA:1,2017-01-02T08:00:00Z,30.6671,-87.9365,8.5,2.66,113.1,-999.0,'1111122,1111122,1111122' 
DISL,ioos:station:DISL:MHPA:1,2017-01-02T08:30:00Z,30.6671,-87.9365,8.5,1.94,75.44,-999.0,'1111122,1111122,1111122' 
DISL,ioos:station:DISL:MHPA:1,2017-01-02T09:00:00Z,30.6671,-87.9365,8.5,2.43,106.4,-999.0,'1111122,1111122,1111122' 
DISL,ioos:station:DISL:MHPA:1,2017-01-02T09:30:00Z,30.6671,-87.9365,8.5,3.04,97.4,-999.0,'1111122,1111122,1111122' 
DISL,ioos:station:DISL:MHPA:1,2017-01-02T10:00:00Z,30.6671,-87.9365,8.5,3.53,97.3,-999.0,'1111122,1111122,1111122' 
DISL,ioos:station:DISL:MHPA:1,2017-01-02T10:30:00Z,30.6671,-87.9365,8.5,3.14,97.0,-999.0,'1111122,1111122,1111122' 
DISL,ioos:station:DISL:MHPA:1,2017-01-02T11:00:00Z,30.6671,-87.9365,8.5,3.55,107.7,-999.0,'1111122,1111122,1111122' 
DISL,ioos:station:DISL:MHPA:1,2017-01-02T11:30:00Z,30.6671,-87.9365,8.5,4.23,107.0,-999.0,'1111122,1111122,1111122' 
DISL,ioos:station:DISL:MHPA:1,2017-01-02T12:00:00Z,30.6671,-87.9365,8.5,4.29,108.5,-999.0,'1111122,1111122,1111122' 
DISL,ioos:station:DISL:MHPA:1,2017-01-02T12:30:00Z,30.6671,-87.9365,8.5,3.62,103.9,-999.0,'1111122,1111122,1111122' 
DISL,ioos:station:DISL:MHPA:1,2017-01-02T13:00:00Z,30.6671,-87.9365,8.5,1.35,145.0,-999.0,'1111122,1111122,1111122' 
DISL,ioos:station:DISL:MHPA:1,2017-01-02T13:30:00Z,30.6671,-87.9365,8.5,4.4,133.9,-999.0,'1111122,1111122,1111122' 
DISL,ioos:station:DISL:MHPA:1,2017-01-02T14:00:00Z,30.6671,-87.9365,8.5,5.15,130.1,-999.0,'1111122,1111122,1111122' 
DISL,ioos:station:DISL:MHPA:1,2017-01-02T14:30:00Z,30.6671,-87.9365,8.5,5.04,138.0,-999.0,'1111122,1111122,1111122' 
DISL,ioos:station:DISL:MHPA:1,2017-01-02T15:00:00Z,30.6671,-87.9365,8.5,7.07,143.7,-999.0,'1111122,1111122,1111122' 
DISL,ioos:station:DISL:MHPA:1,2017-01-02T15:30:00Z,30.6671,-87.9365,8.5,7.71,149.8,-999.0,'1111122,1111122,1111122' 
DISL,ioos:station:DISL:MHPA:1,2017-01-02T16:00:00Z,30.6671,-87.9365,8.5,7.57,148.0,-999.0,'1111122,1111122,1111122' 
DISL,ioos:station:DISL:MHPA:1,2017-01-02T16:30:00Z,30.6671,-87.9365,8.5,8.46,148.4,-999.0,'1111122,1111122,1111122' 
DISL,ioos:station:DISL:MHPA:1,2017-01-02T17:00:00Z,30.6671,-87.9365,8.5,9.85,150.5,-999.0,'1111122,1111122,1111122' 
DISL,ioos:station:DISL:MHPA:1,2017-01-02T17:30:00Z,30.6671,-87.9365,8.5,11.17,156.6,-999.0,'1111122,1111122,1111122' 
DISL,ioos:station:DISL:MHPA:1,2017-01-02T18:00:00Z,30.6671,-87.9365,8.5,10.59,152.6,-999.0,'1111122,1111122,1111122' 
DISL,ioos:station:DISL:MHPA:1,2017-01-02T18:30:00Z,30.6671,-87.9365,8.5,10.01,161.7,-999.0,'1111122,1111122,1111122' 
DISL,ioos:station:DISL:MHPA:1,2017-01-02T19:00:00Z,30.6671,-87.9365,8.5,11.46,154.2,-999.0,'1111122,1111122,1111122' 
DISL,ioos:station:DISL:MHPA:1,2017-01-02T19:30:00Z,30.6671,-87.9365,8.5,11.28,159.7,-999.0,'1111122,1111122,1111122' 
DISL,ioos:station:DISL:MHPA:1,2017-01-02T20:00:00Z,30.6671,-87.9365,8.5,10.38,160.2,-999.0,'1111122,1111122,1111122' 
DISL,ioos:station:DISL:MHPA:1,2017-01-02T20:30:00Z,30.6671,-87.9365,8.5,8.48,160.0,-999.0,'1111122,1111122,1111122' 
DISL,ioos:station:DISL:MHPA:1,2017-01-02T21:00:00Z,30.6671,-87.9365,8.5,8.78,208.3,-999.0,'1111122,1111122,1111122' 
DISL,ioos:station:DISL:MHPA:1,2017-01-02T21:30:00Z,30.6671,-87.9365,8.5,5.43,206.7,-999.0,'1111122,1111122,1111122' 
DISL,ioos:station:DISL:MHPA:1,2017-01-02T22:00:00Z,30.6671,-87.9365,8.5,4.34,246.1,-999.0,'1111122,1111122,1111122' 
DISL,ioos:station:DISL:MHPA:1,2017-01-02T22:30:00Z,30.6671,-87.9365,8.5,3.57,172.7,-999.0,'1111122,1111122,1111122' 
DISL,ioos:station:DISL:MHPA:1,2017-01-02T23:00:00Z,30.6671,-87.9365,8.5,13.63,248.6,-999.0,'1111122,1111122,1111122' 
DISL,ioos:station:DISL:MHPA:1,2017-01-02T23:30:00Z,30.6671,-87.9365,8.5,5.61,272.7,-999.0,'1111122,1111122,1111122' 
DISL,ioos:station:DISL:MHPA:1,2017-01-03T00:00:00Z,30.6671,-87.9365,8.5,5.53,327.0,-999.0,'1111122,1111122,1111122' 
DISL,ioos:station:DISL:MHPA:1,2017-01-03T00:30:00Z,30.6671,-87.9365,8.5,1.48,61.42,-999.0,'1111122,1111122,1111122' 
DISL,ioos:station:DISL:MHPA:1,2017-01-03T01:00:00Z,30.6671,-87.9365,8.5,2.18,102.6,-999.0,'1111122,1111122,1111122' 
DISL,ioos:station:DISL:MHPA:1,2017-01-03T01:30:00Z,30.6671,-87.9365,8.5,3.18,121.8,-999.0,'1111122,1111122,1111122' 
DISL,ioos:station:DISL:MHPA:1,2017-01-03T02:00:00Z,30.6671,-87.9365,8.5,3.79,115.8,-999.0,'1111122,1111122,1111122' 
DISL,ioos:station:DISL:MHPA:1,2017-01-03T02:30:00Z,30.6671,-87.9365,8.5,3.93,127.7,-999.0,'1111122,1111122,1111122' 
DISL,ioos:station:DISL:MHPA:1,2017-01-03T03:00:00Z,30.6671,-87.9365,8.5,4.87,124.4,-999.0,'1111122,1111122,1111122' 
DISL,ioos:station:DISL:MHPA:1,2017-01-03T03:30:00Z,30.6671,-87.9365,8.5,4.47,137.8,-999.0,'1111122,1111122,1111122' 
DISL,ioos:station:DISL:MHPA:1,2017-01-03T04:00:00Z,30.6671,-87.9365,8.5,5.67,149.0,-999.0,'1111122,1111122,1111122' 
DISL,ioos:station:DISL:MHPA:1,2017-01-03T04:30:00Z,30.6671,-87.9365,8.5,5.85,162.2,-999.0,'1111122,1111122,1111122' 
DISL,ioos:station:DISL:MHPA:1,2017-01-03T05:00:00Z,30.6671,-87.9365,8.5,3.22,216.0,-999.0,'1111122,1111122,1111122' 
DISL,ioos:station:DISL:MHPA:1,2017-01-03T05:30:00Z,30.6671,-87.9365,8.5,0.96,237.7,-999.0,'1111122,1111122,1111122' 
DISL,ioos:station:DISL:MHPA:1,2017-01-03T06:00:00Z,30.6671,-87.9365,8.5,2.51,266.2,-999.0,'1111122,1111122,1111122' 
DISL,ioos:station:DISL:MHPA:1,2017-01-03T06:30:00Z,30.6671,-87.9365,8.5,4.34,241.6,-999.0,'1111122,1111122,1111122' 
DISL,ioos:station:DISL:MHPA:1,2017-01-03T07:00:00Z,30.6671,-87.9365,8.5,3.92,243.4,-999.0,'1111122,1111122,1111122' 
DISL,ioos:station:DISL:MHPA:1,2017-01-03T07:30:00Z,30.6671,-87.9365,8.5,3.48,254.9,-999.0,'1111122,1111122,1111122' 
DISL,ioos:station:DISL:MHPA:1,2017-01-03T08:00:00Z,30.6671,-87.9365,8.5,3.29,268.8,-999.0,'1111122,1111122,1111122' 
DISL,ioos:station:DISL:MHPA:1,2017-01-03T08:30:00Z,30.6671,-87.9365,8.5,4.24,310.7,-999.0,'1111122,1111122,1111122' 
DISL,ioos:station:DISL:MHPA:1,2017-01-03T09:00:00Z,30.6671,-87.9365,8.5,2.73,314.5,-999.0,'1111122,1111122,1111122' 
DISL,ioos:station:DISL:MHPA:1,2017-01-03T09:30:00Z,30.6671,-87.9365,8.5,2.78,313.4,-999.0,'1111122,1111122,1111122' 
DISL,ioos:station:DISL:MHPA:1,2017-01-03T10:00:00Z,30.6671,-87.9365,8.5,2.05,332.2,-999.0,'1111122,1111122,1111122' 
DISL,ioos:station:DISL:MHPA:1,2017-01-03T10:30:00Z,30.6671,-87.9365,8.5,1.03,344.4,-999.0,'1111122,1111122,1111122' 
DISL,ioos:station:DISL:MHPA:1,2017-01-03T11:30:00Z,30.6671,-87.9365,8.5,0.62,325.6,-999.0,'1111122,1111122,1111122' 
DISL,ioos:station:DISL:MHPA:1,2017-01-03T12:00:00Z,30.6671,-87.9365,8.5,0.25,334.1,-999.0,'1111122,1111122,1111122' 
DISL,ioos:station:DISL:MHPA:1,2017-01-03T12:30:00Z,30.6671,-87.9365,8.5,0.2,84.6,-999.0,'1111122,1111122,1111122' 
DISL,ioos:station:DISL:MHPA:1,2017-01-03T13:00:00Z,30.6671,-87.9365,8.5,0.0,0.0,-999.0,'1114422,1114422,1111122' 
DISL,ioos:station:DISL:MHPA:1,2017-01-03T13:30:00Z,30.6671,-87.9365,8.5,0.49,8.11,-999.0,'1111122,1111122,1111122' 
DISL,ioos:station:DISL:MHPA:1,2017-01-03T14:00:00Z,30.6671,-87.9365,8.5,0.66,341.0,-999.0,'1111122,1111122,1111122' 
DISL,ioos:station:DISL:MHPA:1,2017-01-03T14:30:00Z,30.6671,-87.9365,8.5,0.22,347.2,-999.0,'1111122,1111122,1111122' 
DISL,ioos:station:DISL:MHPA:1,2017-01-03T15:00:00Z,30.6671,-87.9365,8.5,1.58,162.8,-999.0,'1111122,1111122,1111122' 
DISL,ioos:station:DISL:MHPA:1,2017-01-03T15:30:00Z,30.6671,-87.9365,8.5,1.43,175.1,-999.0,'1111122,1111122,1111122' 
DISL,ioos:station:DISL:MHPA:1,2017-01-03T16:00:00Z,30.6671,-87.9365,8.5,2.02,175.4,-999.0,'1111122,1111122,1111122' 
DISL,ioos:station:DISL:MHPA:1,2017-01-03T16:30:00Z,30.6671,-87.9365,8.5,1.87,187.2,-999.0,'1111122,1111122,1111122' 
DISL,ioos:station:DISL:MHPA:1,2017-01-03T17:00:00Z,30.6671,-87.9365,8.5,1.54,192.1,-999.0,'1111122,1111122,1111122' 
DISL,ioos:station:DISL:MHPA:1,2017-01-03T17:30:00Z,30.6671,-87.9365,8.5,2.69,176.7,-999.0,'1111122,1111122,1111122' 
DISL,ioos:station:DISL:MHPA:1,2017-01-03T18:00:00Z,30.6671,-87.9365,8.5,3.46,168.4,-999.0,'1111122,1111122,1111122' 
DISL,ioos:station:DISL:MHPA:1,2017-01-03T18:30:00Z,30.6671,-87.9365,8.5,3.63,173.3,-999.0,'1111122,1111122,1111122' 
DISL,ioos:station:DISL:MHPA:1,2017-01-03T19:00:00Z,30.6671,-87.9365,8.5,3.68,175.1,-999.0,'1111122,1111122,1111122' 
DISL,ioos:station:DISL:MHPA:1,2017-01-03T19:30:00Z,30.6671,-87.9365,8.5,4.33,169.3,-999.0,'1111122,1111122,1111122' 
DISL,ioos:station:DISL:MHPA:1,2017-01-03T20:00:00Z,30.6671,-87.9365,8.5,4.31,158.6,-999.0,'1111122,1111122,1111122' 
DISL,ioos:station:DISL:MHPA:1,2017-01-03T20:30:00Z,30.6671,-87.9365,8.5,4.3,158.1,-999.0,'1111122,1111122,1111122' 
DISL,ioos:station:DISL:MHPA:1,2017-01-03T21:00:00Z,30.6671,-87.9365,8.5,4.3,158.7,-999.0,'1111122,1111122,1111122' 
DISL,ioos:station:DISL:MHPA:1,2017-01-03T21:30:00Z,30.6671,-87.9365,8.5,5.01,158.7,-999.0,'1111122,1111122,1111122' 
DISL,ioos:station:DISL:MHPA:1,2017-01-03T22:00:00Z,30.6671,-87.9365,8.5,4.58,159.0,-999.0,'1111122,1111122,1111122' 
DISL,ioos:station:DISL:MHPA:1,2017-01-03T22:30:00Z,30.6671,-87.9365,8.5,3.6,140.0,-999.0,'1111122,1111122,1111122' 
DISL,ioos:station:DISL:MHPA:1,2017-01-03T23:00:00Z,30.6671,-87.9365,8.5,3.49,175.2,-999.0,'1111122,1111122,1111122' 
DISL,ioos:station:DISL:MHPA:1,2017-01-03T23:30:00Z,30.6671,-87.9365,8.5,5.02,210.7,-999.0,'1111122,1111122,1111122' 
DISL,ioos:station:DISL:MHPA:1,2017-01-04T00:00:00Z,30.6671,-87.9365,8.5,4.85,212.4,-999.0,'1111122,1111122,1111122' 
DISL,ioos:station:DISL:MHPA:1,2017-01-04T00:30:00Z,30.6671,-87.9365,8.5,4.06,203.0,-999.0,'1111122,1111122,1111122' 
DISL,ioos:station:DISL:MHPA:1,2017-01-04T01:00:00Z,30.6671,-87.9365,8.5,4.08,197.8,-999.0,'1111122,1111122,1111122' 
DISL,ioos:station:DISL:MHPA:1,2017-01-04T01:30:00Z,30.6671,-87.9365,8.5,3.61,209.7,-999.0,'1111122,1111122,1111122' 
DISL,ioos:station:DISL:MHPA:1,2017-01-04T02:00:00Z,30.6671,-87.9365,8.5,3.85,219.7,-999.0,'1111122,1111122,1111122' 
DISL,ioos:station:DISL:MHPA:1,2017-01-04T02:30:00Z,30.6671,-87.9365,8.5,3.65,233.4,-999.0,'1111122,1111122,1111122' 
DISL,ioos:station:DISL:MHPA:1,2017-01-04T03:00:00Z,30.6671,-87.9365,8.5,3.13,239.4,-999.0,'1111122,1111122,1111122' 
DISL,ioos:station:DISL:MHPA:1,2017-01-04T03:30:00Z,30.6671,-87.9365,8.5,2.19,241.5,-999.0,'1111122,1111122,1111122' 
DISL,ioos:station:DISL:MHPA:1,2017-01-04T04:00:00Z,30.6671,-87.9365,8.5,2.35,218.2,-999.0,'1111122,1111122,1111122' 
DISL,ioos:station:DISL:MHPA:1,2017-01-04T04:30:00Z,30.6671,-87.9365,8.5,2.74,219.2,-999.0,'1111122,1111122,1111122' 
DISL,ioos:station:DISL:MHPA:1,2017-01-04T05:00:00Z,30.6671,-87.9365,8.5,3.04,220.7,-999.0,'1111122,1111122,1111122' 
DISL,ioos:station:DISL:MHPA:1,2017-01-04T05:30:00Z,30.6671,-87.9365,8.5,2.78,197.9,-999.0,'1111122,1111122,1111122' 
DISL,ioos:station:DISL:MHPA:1,2017-01-04T06:00:00Z,30.6671,-87.9365,8.5,2.31,197.2,-999.0,'1111122,1111122,1111122' 
DISL,ioos:station:DISL:MHPA:1,2017-01-04T06:30:00Z,30.6671,-87.9365,8.5,1.77,190.2,-999.0,'1111122,1111122,1111122' 
DISL,ioos:station:DISL:MHPA:1,2017-01-04T07:00:00Z,30.6671,-87.9365,8.5,0.98,185.1,-999.0,'1111122,1111122,1111122' 
DISL,ioos:station:DISL:MHPA:1,2017-01-04T07:30:00Z,30.6671,-87.9365,8.5,0.95,153.3,-999.0,'1111122,1111122,1111122' 
DISL,ioos:station:DISL:MHPA:1,2017-01-04T08:00:00Z,30.6671,-87.9365,8.5,1.12,209.8,-999.0,'1111122,1111122,1111122' 
DISL,ioos:station:DISL:MHPA:1,2017-01-04T08:30:00Z,30.6671,-87.9365,8.5,1.35,233.8,-999.0,'1111122,1111122,1111122' 
DISL,ioos:station:DISL:MHPA:1,2017-01-04T09:00:00Z,30.6671,-87.9365,8.5,0.61,222.7,-999.0,'1111122,1111122,1111122' 
DISL,ioos:station:DISL:MHPA:1,2017-01-04T09:30:00Z,30.6671,-87.9365,8.5,1.89,343.2,-999.0,'1111122,1111122,1111122' 
DISL,ioos:station:DISL:MHPA:1,2017-01-04T10:00:00Z,30.6671,-87.9365,8.5,1.64,358.6,-999.0,'1111122,1111122,1111122' 
DISL,ioos:station:DISL:MHPA:1,2017-01-04T10:30:00Z,30.6671,-87.9365,8.5,2.47,345.3,-999.0,'1111122,1111122,1111122' 
DISL,ioos:station:DISL:MHPA:1,2017-01-04T11:00:00Z,30.6671,-87.9365,8.5,3.7,345.2,-999.0,'1111122,1111122,1111122' 
DISL,ioos:station:DISL:MHPA:1,2017-01-04T11:30:00Z,30.6671,-87.9365,8.5,5.58,345.1,-999.0,'1111122,1111122,1111122' 
DISL,ioos:station:DISL:MHPA:1,2017-01-04T12:00:00Z,30.6671,-87.9365,8.5,3.49,350.4,-999.0,'1111122,1111122,1111122' 
DISL,ioos:station:DISL:MHPA:1,2017-01-04T12:30:00Z,30.6671,-87.9365,8.5,2.18,358.6,-999.0,'1111122,1111122,1111122' 
DISL,ioos:station:DISL:MHPA:1,2017-01-04T13:00:00Z,30.6671,-87.9365,8.5,2.22,349.4,-999.0,'1111122,1111122,1111122' 
DISL,ioos:station:DISL:MHPA:1,2017-01-04T13:30:00Z,30.6671,-87.9365,8.5,2.25,347.5,-999.0,'1111122,1111122,1111122' 
DISL,ioos:station:DISL:MHPA:1,2017-01-04T14:00:00Z,30.6671,-87.9365,8.5,3.18,327.4,-999.0,'1111122,1111122,1111122' 
DISL,ioos:station:DISL:MHPA:1,2017-01-04T14:30:00Z,30.6671,-87.9365,8.5,3.52,336.0,-999.0,'1111122,1111122,1111122' 
DISL,ioos:station:DISL:MHPA:1,2017-01-04T15:00:00Z,30.6671,-87.9365,8.5,4.25,335.7,-999.0,'1111122,1111122,1111122' 
DISL,ioos:station:DISL:MHPA:1,2017-01-04T15:30:00Z,30.6671,-87.9365,8.5,4.89,343.4,-999.0,'1111122,1111122,1111122' 
DISL,ioos:station:DISL:MHPA:1,2017-01-04T16:00:00Z,30.6671,-87.9365,8.5,4.77,343.8,-999.0,'1111122,1111122,1111122' 
DISL,ioos:station:DISL:MHPA:1,2017-01-04T16:30:00Z,30.6671,-87.9365,8.5,6.25,331.5,-999.0,'1111122,1111122,1111122' 
DISL,ioos:station:DISL:MHPA:1,2017-01-04T17:00:00Z,30.6671,-87.9365,8.5,3.98,3.231,-999.0,'1111122,1111122,1111122' 
DISL,ioos:station:DISL:MHPA:1,2017-01-04T17:30:00Z,30.6671,-87.9365,8.5,4.05,354.0,-999.0,'1111122,1111122,1111122' 
DISL,ioos:station:DISL:MHPA:1,2017-01-04T18:00:00Z,30.6671,-87.9365,8.5,4.87,343.4,-999.0,'1111122,1111122,1111122' 
DISL,ioos:station:DISL:MHPA:1,2017-01-04T18:30:00Z,30.6671,-87.9365,8.5,5.07,346.5,-999.0,'1111122,1111122,1111122' 
DISL,ioos:station:DISL:MHPA:1,2017-01-04T19:00:00Z,30.6671,-87.9365,8.5,4.35,347.1,-999.0,'1111122,1111122,1111122' 
DISL,ioos:station:DISL:MHPA:1,2017-01-04T19:30:00Z,30.6671,-87.9365,8.5,4.6,344.2,-999.0,'1111122,1111122,1111122' 
DISL,ioos:station:DISL:MHPA:1,2017-01-04T20:00:00Z,30.6671,-87.9365,8.5,4.83,338.2,-999.0,'1111122,1111122,1111122' 
DISL,ioos:station:DISL:MHPA:1,2017-01-04T20:30:00Z,30.6671,-87.9365,8.5,4.69,344.4,-999.0,'1111122,1111122,1111122' 
DISL,ioos:station:DISL:MHPA:1,2017-01-04T21:00:00Z,30.6671,-87.9365,8.5,4.8,356.8,-999.0,'1111122,1111122,1111122' 
DISL,ioos:station:DISL:MHPA:1,2017-01-04T21:30:00Z,30.6671,-87.9365,8.5,4.5,341.2,-999.0,'1111122,1111122,1111122' 
DISL,ioos:station:DISL:MHPA:1,2017-01-04T22:00:00Z,30.6671,-87.9365,8.5,4.76,346.0,-999.0,'1111122,1111122,1111122' 
DISL,ioos:station:DISL:MHPA:1,2017-01-04T22:30:00Z,30.6671,-87.9365,8.5,4.85,349.2,-999.0,'1111122,1111122,1111122' 
DISL,ioos:station:DISL:MHPA:1,2017-01-04T23:00:00Z,30.6671,-87.9365,8.5,4.03,348.7,-999.0,'1111122,1111122,1111122' 
DISL,ioos:station:DISL:MHPA:1,2017-01-04T23:30:00Z,30.6671,-87.9365,8.5,4.46,339.5,-999.0,'1111122,1111122,1111122' 
DISL,ioos:station:DISL:MHPA:1,2017-01-05T00:00:00Z,30.6671,-87.9365,8.5,3.2,328.2,-999.0,'1111122,1111122,1111122' 
DISL,ioos:station:DISL:MHPA:1,2017-01-05T00:30:00Z,30.6671,-87.9365,8.5,4.06,340.0,-999.0,'1111122,1111122,1111122' 
DISL,ioos:station:DISL:MHPA:1,2017-01-05T01:00:00Z,30.6671,-87.9365,8.5,3.11,2.409,-999.0,'1111122,1111122,1111122' 
DISL,ioos:station:DISL:MHPA:1,2017-01-05T01:30:00Z,30.6671,-87.9365,8.5,2.72,18.95,-999.0,'1111122,1111122,1111122' 
DISL,ioos:station:DISL:MHPA:1,2017-01-05T02:00:00Z,30.6671,-87.9365,8.5,3.1,10.46,-999.0,'1111122,1111122,1111122' 
DISL,ioos:station:DISL:MHPA:1,2017-01-05T02:30:00Z,30.6671,-87.9365,8.5,3.29,359.7,-999.0,'1111122,1111122,1111122' 
DISL,ioos:station:DISL:MHPA:1,2017-01-05T03:00:00Z,30.6671,-87.9365,8.5,2.88,5.095,-999.0,'1111122,1111122,1111122' 
DISL,ioos:station:DISL:MHPA:1,2017-01-05T03:30:00Z,30.6671,-87.9365,8.5,2.54,10.36,-999.0,'1111122,1111122,1111122' 
DISL,ioos:station:DISL:MHPA:1,2017-01-05T04:00:00Z,30.6671,-87.9365,8.5,2.08,19.95,-999.0,'1111122,1111122,1111122' 
DISL,ioos:station:DISL:MHPA:1,2017-01-05T04:30:00Z,30.6671,-87.9365,8.5,1.93,21.94,-999.0,'1111122,1111122,1111122' 
DISL,ioos:station:DISL:MHPA:1,2017-01-05T05:00:00Z,30.6671,-87.9365,8.5,1.74,27.52,-999.0,'1111122,1111122,1111122' 
DISL,ioos:station:DISL:MHPA:1,2017-01-05T05:30:00Z,30.6671,-87.9365,8.5,0.52,34.27,-999.0,'1111122,1111122,1111122' 
DISL,ioos:station:DISL:MHPA:1,2017-01-05T06:30:00Z,30.6671,-87.9365,8.5,0.45,1.968,-999.0,'1111122,1111122,1111122' 
DISL,ioos:station:DISL:MHPA:1,2017-01-05T07:00:00Z,30.6671,-87.9365,8.5,0.59,356.6,-999.0,'1111122,1111122,1111122' 
DISL,ioos:station:DISL:MHPA:1,2017-01-05T07:30:00Z,30.6671,-87.9365,8.5,0.75,35.36,-999.0,'1111122,1111122,1111122' 
DISL,ioos:station:DISL:MHPA:1,2017-01-05T08:00:00Z,30.6671,-87.9365,8.5,0.59,2.128,-999.0,'1111122,1111122,1111122' 
DISL,ioos:station:DISL:MHPA:1,2017-01-05T08:30:00Z,30.6671,-87.9365,8.5,1.52,331.2,-999.0,'1111122,1111122,1111122' 
DISL,ioos:station:DISL:MHPA:1,2017-01-05T09:00:00Z,30.6671,-87.9365,8.5,1.42,2.571,-999.0,'1111122,1111122,1111122' 
DISL,ioos:station:DISL:MHPA:1,2017-01-05T09:30:00Z,30.6671,-87.9365,8.5,0.81,22.25,-999.0,'1111122,1111122,1111122' 
DISL,ioos:station:DISL:MHPA:1,2017-01-05T10:00:00Z,30.6671,-87.9365,8.5,0.34,23.73,-999.0,'1111122,1111122,1111122' 
DISL,ioos:station:DISL:MHPA:1,2017-01-05T10:30:00Z,30.6671,-87.9365,8.5,0.51,356.6,-999.0,'1111122,1111122,1111122' 
DISL,ioos:station:DISL:MHPA:1,2017-01-05T11:00:00Z,30.6671,-87.9365,8.5,1.53,355.7,-999.0,'1111122,1111122,1111122' 
DISL,ioos:station:DISL:MHPA:1,2017-01-05T11:30:00Z,30.6671,-87.9365,8.5,1.89,3.18,-999.0,'1111122,1111122,1111122' 
DISL,ioos:station:DISL:MHPA:1,2017-01-05T12:00:00Z,30.6671,-87.9365,8.5,1.27,7.476,-999.0,'1111122,1111122,1111122' 
DISL,ioos:station:DISL:MHPA:1,2017-01-05T12:30:00Z,30.6671,-87.9365,8.5,0.99,3.621,-999.0,'1111122,1111122,1111122' 
DISL,ioos:station:DISL:MHPA:1,2017-01-05T13:00:00Z,30.6671,-87.9365,8.5,1.35,18.94,-999.0,'1111122,1111122,1111122' 
DISL,ioos:station:DISL:MHPA:1,2017-01-05T13:30:00Z,30.6671,-87.9365,8.5,1.2,39.56,-999.0,'1111122,1111122,1111122' 
DISL,ioos:station:DISL:MHPA:1,2017-01-05T14:00:00Z,30.6671,-87.9365,8.5,1.3,22.21,-999.0,'1111122,1111122,1111122' 
DISL,ioos:station:DISL:MHPA:1,2017-01-05T14:30:00Z,30.6671,-87.9365,8.5,2.02,16.98,-999.0,'1111122,1111122,1111122' 
DISL,ioos:station:DISL:MHPA:1,2017-01-05T15:00:00Z,30.6671,-87.9365,8.5,2.06,0.339,-999.0,'1111122,1111122,1111122' 